[[{"header":{"parameterUnit":"m.s-1","parameterCategory":1,"la1":30.2991,"la2":30.254,"lo1":-89.0895,"lo2":-89.0444,"dy":0.0017,"dx":0.0017,"nx":28,"ny":28,"refTime":"2023-10-15T09:00:00:Z","depth":0,"parameterNumber":2,"parameterNumberName":"U-component_of_WINDS"},"data":[0,0,0,0,0,0,0,0,0,0,0,0,0,0,0,0,0,0,0,0,0,0,0,0,0,0,0,0,0,0,0,0,0,0,0,0,0,0,0,0,0,0,0,0,0,0,0,0,0,0,0,0,0,0,0,0,0,0,2.4395,2.4395,0,2.4419,2.4419,2.442,2.4389,2.4387,2.4386,2.4385,2.4409,2.4411,2.4412,0,0,0,0,0,0,0,0,0,0,0,0,0,2.4321,2.4323,2.4395,2.4395,2.4395,2.4419,2.4419,2.442,2.4389,2.4387,2.4386,2.4385,2.4408,2.441,2.4412,0,0,0,0,0,0,0,0,0,0,0,0,0,2.435,2.4323,2.4395,2.4383,2.4382,2.4419,2.4419,2.442,2.4389,2.4387,2.4386,2.4384,2.4408,2.441,2.4413,2.4462,0,0,2.442,2.4422,0,0,0,0,0,0,0,0,2.4348,2.4353,2.4384,2.4384,2.4383,2.4399,2.4402,2.4434,2.439,2.4386,2.4385,2.4383,2.4407,2.4409,2.4418,2.4463,2.4464,2.4421,2.4422,2.4423,2.4424,0,0,0,0,0,0,0,2.4347,2.4352,2.4404,2.4385,2.4384,2.4376,2.4378,2.4408,2.4406,2.4386,2.4384,2.4388,2.4406,2.4415,2.4418,2.4465,2.4421,2.4423,2.4424,2.4425,2.4554,2.4556,0,0,0,0,0,0,2.4346,2.435,2.4403,2.4405,2.4361,2.4379,2.4381,2.4396,2.4405,2.4405,2.4389,2.4386,2.4412,2.4415,2.4419,2.4478,2.4423,2.4426,2.4427,2.4552,2.4554,2.4556,0,0,0,0,0,0,2.4345,2.4351,2.4402,2.4377,2.4383,2.4382,2.4398,2.4397,2.4406,2.4407,2.4407,2.4399,2.4411,2.4415,2.4452,2.4478,2.4427,2.4429,2.455,2.4553,2.4555,2.4596,0,0,0,0,0,0,2.4343,2.4351,2.4369,2.4378,2.4384,2.4435,2.44,2.4399,2.4411,2.4407,2.4416,2.4416,2.441,2.4449,2.4455,2.4481,2.4431,2.4547,2.4551,2.4554,2.4593,2.46,2.4607,0,0,0,0,0,2.434,2.4379,2.437,2.4377,2.4408,2.4437,2.4441,2.4433,2.4413,2.4432,2.4433,2.4416,2.4475,2.4453,2.4459,2.4487,2.4546,2.455,2.4554,2.459,2.4599,2.4607,0,0,0,0,0,0,2.4372,2.438,2.437,2.4413,2.4425,2.4432,2.4455,2.4443,2.446,2.4455,2.4445,2.4447,2.4487,2.449,2.4465,2.4536,2.4507,2.4513,2.4532,2.454,2.4547,2.4545,2.4433,0,0,0,0,0,2.4385,2.4408,2.4413,2.4451,2.4457,2.4456,2.4468,2.4461,2.4472,2.4477,2.4481,2.4492,2.4513,2.4527,2.4547,2.4594,2.4596,2.4616,2.4623,2.4629,2.4634,2.466,2.4669,2.457,2.457,2.457,0,0,2.441,2.4417,2.4432,2.4458,2.4466,2.449,2.446,2.4486,2.4504,2.4481,2.4516,2.452,2.4532,2.4574,2.4593,2.4579,2.4662,2.4635,2.4639,2.4641,2.4665,2.4675,2.4683,2.4573,2.4573,2.4572,0,0,2.4469,2.4476,2.4509,2.4518,2.4532,2.4531,2.4539,2.4548,2.455,2.4585,2.4569,2.459,2.4627,2.4636,2.4646,2.4712,2.4697,2.4719,2.4755,2.4781,2.4788,2.4795,2.4819,2.4827,2.4724,2.4724,2.4724,0,2.4498,2.4534,2.4527,2.4556,2.4568,2.4549,2.4582,2.4592,2.4611,2.4619,2.4603,2.465,2.4657,2.4702,2.4718,2.4727,2.4736,2.4716,2.4788,2.4795,2.4801,2.4823,2.4832,2.4726,2.4726,2.4726,2.4725,0,2.457,2.4596,2.4621,2.4641,2.4656,2.4686,2.4684,2.47,2.4693,2.4694,2.4731,2.4739,2.4761,2.4771,2.4764,2.4816,2.4807,2.479,2.476,2.4813,2.4834,2.4842,2.473,2.4729,2.4728,2.4728,0,0,2.4647,2.4665,2.4674,2.4683,2.4698,2.4718,2.4749,2.477,2.4785,2.4799,2.4825,2.4858,2.4843,2.4854,2.4848,2.4871,2.4923,2.4851,2.4851,2.4864,2.4981,2.4993,2.5003,2.4914,2.4915,2.4917,2.498,0,2.4705,2.4758,2.4754,2.4804,2.4829,2.4813,2.484,2.4852,2.4854,2.4875,2.4878,2.4901,2.488,2.4887,2.4909,2.4912,2.4946,2.4907,2.4937,2.4938,2.4933,2.5014,2.5026,2.5085,2.4988,2.4989,2.499,0,2.478,2.4798,2.4851,2.4864,2.4874,2.4898,2.4919,2.494,2.4954,2.4954,2.4968,2.4959,2.4991,2.4962,2.5006,2.4979,2.4992,2.4996,2.4998,2.4999,2.4966,2.5017,2.5103,2.5112,2.5003,2.5002,2.5001,0,2.483,2.4868,2.4905,2.4914,2.493,2.4948,2.4955,2.4968,2.4982,2.5001,2.501,2.5031,2.5043,2.506,2.5058,2.5037,2.5102,2.5073,2.5103,2.5103,2.5116,2.5115,2.5205,2.5126,2.5126,2.5126,2.5125,0,2.4895,2.4928,2.4929,2.4951,2.4988,2.4984,2.5021,2.5026,2.5038,2.5062,2.505,2.5072,2.5068,2.5091,2.5089,2.5126,2.5131,2.5132,2.5131,2.5133,2.5132,2.5139,2.5135,2.5128,2.5127,2.5127,2.5127,0,2.4956,2.4958,2.4997,2.5011,2.5015,2.5041,2.5053,2.5074,2.5077,2.5107,2.5114,2.5118,2.5144,2.5144,2.5174,2.5173,2.5218,2.5212,2.5213,2.5211,2.5241,2.5238,2.5338,2.5351,2.5265,2.5265,2.5266,0,2.4997,2.5022,2.5039,2.5054,2.5063,2.5088,2.5103,2.5101,2.5117,2.5136,2.5156,2.5182,2.5201,2.5245,2.525,2.5273,2.5268,2.5302,2.5271,2.5272,2.5268,2.5266,2.5269,2.5307,2.5308,2.5309,2.5309,0,2.5069,2.5069,2.5091,2.5115,2.5133,2.5151,2.5168,2.5181,2.5181,2.52,2.5227,2.5243,2.5275,2.53,2.5323,2.5331,2.532,2.5319,2.5327,2.5328,2.5328,2.5328,2.5228,2.5316,2.5316,2.5315,2.5315,2.5315,2.512,2.5143,2.5158,2.5184,2.5197,2.5213,2.5235,2.5241,2.5264,2.529,2.5287,2.5318,2.5334,2.5364,2.5374,2.5398,2.5386,2.5398,2.5401,2.5403,2.5406,2.5325,2.5402,2.5402,2.5402,2.5402,2.5402,0,2.5191,2.5201,2.5225,2.525,2.527,2.526,2.5279,2.5297,2.5324,2.534,2.5361,2.5393,2.5419,2.5427,2.5452,2.547,2.5466,2.5477,2.5475,2.5477,2.5416,2.5406,2.548,2.548,2.548,2.548,2.548,2.548,2.523,2.5268,2.527,2.5315,2.5324,2.5355,2.5367,2.5382,2.5395,2.5432,2.5453,2.5459,2.5473,2.5499,2.5522,2.5524,2.5534,2.5546,2.5546,2.5489,2.5481,2.5473,2.5464,2.5549,2.5549,2.5605,2.5606,2.5606]},{"header":{"parameterUnit":"m.s-1","parameterCategory":1,"la1":30.2991,"la2":30.254,"lo1":-89.0895,"lo2":-89.0444,"dy":0.0017,"dx":0.0017,"nx":28,"ny":28,"refTime":"2023-10-15T09:00:00:Z","depth":0,"parameterNumber":3,"parameterNumberName":"V-component_of_WINDS"},"data":[0,0,0,0,0,0,0,0,0,0,0,0,0,0,0,0,0,0,0,0,0,0,0,0,0,0,0,0,0,0,0,0,0,0,0,0,0,0,0,0,0,0,0,0,0,0,0,0,0,0,0,0,0,0,0,0,0,0,-6.4406,-6.4408,0,-6.4632,-6.4634,-6.4637,-6.4555,-6.455,-6.4545,-6.454,-6.4768,-6.4778,-6.4789,0,0,0,0,0,0,0,0,0,0,0,0,0,-6.3899,-6.3909,-6.4405,-6.4408,-6.4411,-6.4631,-6.4634,-6.4637,-6.4556,-6.455,-6.4544,-6.4538,-6.4764,-6.4777,-6.479,0,0,0,0,0,0,0,0,0,0,0,0,0,-6.4121,-6.3912,-6.4405,-6.4397,-6.4399,-6.4631,-6.4634,-6.4638,-6.4557,-6.455,-6.4542,-6.4535,-6.476,-6.4776,-6.4791,-6.5043,0,0,-6.4841,-6.4848,0,0,0,0,0,0,0,0,-6.4109,-6.414,-6.4395,-6.4398,-6.44,-6.4557,-6.4539,-6.4774,-6.4559,-6.4497,-6.454,-6.4531,-6.4704,-6.4724,-6.4783,-6.5054,-6.5064,-6.4842,-6.4852,-6.4859,-6.4864,0,0,0,0,0,0,0,-6.4094,-6.413,-6.4495,-6.4399,-6.4402,-6.4381,-6.4404,-6.4583,-6.464,-6.4502,-6.4496,-6.4525,-6.4703,-6.4767,-6.4788,-6.5067,-6.4842,-6.4856,-6.4866,-6.4872,-6.5557,-6.5565,0,0,0,0,0,0,-6.4078,-6.4118,-6.4487,-6.4501,-6.4233,-6.4396,-6.4422,-6.4515,-6.4638,-6.4649,-6.4531,-6.452,-6.4744,-6.4769,-6.4795,-6.5099,-6.4859,-6.4874,-6.4883,-6.5549,-6.5559,-6.5568,0,0,0,0,0,0,-6.4067,-6.4111,-6.4478,-6.4308,-6.4353,-6.4413,-6.4517,-6.4523,-6.4587,-6.466,-6.4669,-6.4586,-6.4739,-6.4772,-6.4983,-6.5106,-6.4881,-6.4896,-6.5539,-6.5552,-6.5563,-6.5709,0,0,0,0,0,0,-6.4053,-6.4108,-6.4205,-6.4311,-6.4363,-6.4664,-6.4525,-6.4533,-6.4616,-6.4604,-6.4714,-6.4725,-6.4735,-6.4959,-6.4999,-6.5124,-6.4909,-6.5528,-6.5544,-6.5559,-6.5693,-6.5725,-6.5752,0,0,0,0,0,-6.4035,-6.4236,-6.4211,-6.4256,-6.4486,-6.4671,-6.4701,-6.4709,-6.4626,-6.4724,-6.4771,-6.4722,-6.5086,-6.4981,-6.5025,-6.5157,-6.552,-6.554,-6.5558,-6.568,-6.5719,-6.5752,0,0,0,0,0,0,-6.4142,-6.425,-6.4223,-6.4464,-6.456,-6.4657,-6.4781,-6.475,-6.4869,-6.4853,-6.4857,-6.4882,-6.5099,-6.5149,-6.5031,-6.5408,-6.529,-6.5319,-6.5368,-6.5405,-6.5434,-6.5418,-6.4922,0,0,0,0,0,-6.4194,-6.4336,-6.4422,-6.4627,-6.4676,-6.4721,-6.4802,-6.48,-6.4898,-6.4938,-6.4999,-6.5095,-6.5231,-6.5321,-6.545,-6.57,-6.5723,-6.5812,-6.5841,-6.5865,-6.589,-6.6027,-6.6068,-6.5631,-6.5631,-6.563,0,0,-6.4302,-6.4378,-6.4468,-6.4651,-6.4724,-6.4871,-6.4755,-6.4915,-6.5024,-6.4961,-6.5165,-6.5214,-6.532,-6.5552,-6.5657,-6.56,-6.6016,-6.589,-6.5908,-6.5921,-6.6051,-6.6092,-6.6129,-6.5644,-6.5641,-6.5639,0,0,-6.4574,-6.4647,-6.4826,-6.4902,-6.5016,-6.5044,-6.5087,-6.519,-6.5221,-6.5425,-6.5382,-6.551,-6.5744,-6.5822,-6.5893,-6.6196,-6.6156,-6.6238,-6.6392,-6.6525,-6.6559,-6.659,-6.6699,-6.6738,-6.6262,-6.6263,-6.6263,0,-6.4694,-6.4915,-6.4921,-6.5086,-6.5168,-6.5119,-6.5301,-6.5374,-6.5523,-6.558,-6.5514,-6.5808,-6.5876,-6.6126,-6.62,-6.6259,-6.6308,-6.6226,-6.6554,-6.6585,-6.6613,-6.6718,-6.6759,-6.6272,-6.6271,-6.627,-6.6269,0,-6.5057,-6.5211,-6.5342,-6.549,-6.5586,-6.5758,-6.5789,-6.5885,-6.5876,-6.591,-6.6119,-6.62,-6.6345,-6.6404,-6.6395,-6.6653,-6.6614,-6.6552,-6.6434,-6.6664,-6.6762,-6.6802,-6.6285,-6.6282,-6.6279,-6.6277,0,0,-6.5404,-6.5553,-6.5601,-6.5668,-6.579,-6.5908,-6.6078,-6.6221,-6.6304,-6.6408,-6.6551,-6.675,-6.6694,-6.6774,-6.6773,-6.689,-6.7126,-6.6813,-6.6815,-6.6869,-6.7417,-6.7464,-6.751,-6.71,-6.7107,-6.7114,-6.7408,0,-6.5687,-6.5987,-6.5998,-6.6271,-6.6413,-6.6369,-6.6517,-6.6607,-6.6644,-6.6769,-6.6809,-6.6951,-6.6865,-6.6913,-6.7027,-6.7074,-6.7236,-6.7052,-6.7232,-6.7238,-6.7208,-6.7561,-6.7612,-6.7886,-6.7446,-6.7453,-6.7457,0,-6.6058,-6.6176,-6.6464,-6.6567,-6.6627,-6.6759,-6.6892,-6.7013,-6.7114,-6.7132,-6.7223,-6.7205,-6.7378,-6.7253,-6.7491,-6.7366,-6.7439,-6.7473,-6.7484,-6.7502,-6.7363,-6.759,-6.7974,-6.8015,-6.7518,-6.7513,-6.7508,0,-6.6283,-6.6514,-6.6717,-6.6775,-6.6899,-6.6993,-6.7049,-6.7143,-6.7229,-6.7344,-6.74,-6.7533,-6.7607,-6.771,-6.7729,-6.7636,-6.7967,-6.7844,-6.7988,-6.7988,-6.806,-6.8056,-6.8462,-6.8106,-6.8105,-6.8104,-6.8104,0,-6.6599,-6.6778,-6.682,-6.6945,-6.7143,-6.7153,-6.7348,-6.7396,-6.7481,-6.7613,-6.7582,-6.7707,-6.7724,-6.7853,-6.7868,-6.8063,-6.8096,-6.8115,-6.8118,-6.8119,-6.8117,-6.8169,-6.8151,-6.8115,-6.8113,-6.8111,-6.8109,0,-6.6885,-6.6921,-6.7139,-6.7239,-6.7268,-6.741,-6.7495,-6.7614,-6.7648,-6.7816,-6.7856,-6.7909,-6.8059,-6.8088,-6.8265,-6.8275,-6.8508,-6.849,-6.8475,-6.8473,-6.8615,-6.8602,-6.9071,-6.9133,-6.8735,-6.8738,-6.8741,0,-6.7085,-6.7222,-6.7337,-6.7425,-6.7486,-6.7627,-6.7715,-6.7729,-6.7822,-6.7948,-6.8052,-6.8199,-6.8318,-6.856,-6.8613,-6.8748,-6.8735,-6.8889,-6.8755,-6.8752,-6.8739,-6.8731,-6.8745,-6.8915,-6.892,-6.8923,-6.8926,0,-6.7437,-6.7448,-6.7577,-6.7713,-6.782,-6.7927,-6.8029,-6.8102,-6.8129,-6.8235,-6.839,-6.8482,-6.8664,-6.881,-6.8946,-6.9001,-6.897,-6.8968,-6.9009,-6.9012,-6.8999,-6.9009,-6.8547,-6.8957,-6.8954,-6.8952,-6.895,-6.8949,-6.7687,-6.7807,-6.7907,-6.8052,-6.813,-6.8227,-6.8344,-6.8393,-6.8522,-6.8673,-6.8673,-6.8842,-6.8939,-6.9118,-6.9182,-6.9314,-6.9265,-6.9323,-6.9338,-6.9353,-6.9367,-6.8977,-6.9338,-6.9337,-6.9337,-6.9336,-6.9335,0,-6.8038,-6.8101,-6.8234,-6.8379,-6.8493,-6.8454,-6.8564,-6.8662,-6.8812,-6.8906,-6.9024,-6.9202,-6.9344,-6.9409,-6.9549,-6.9642,-6.9631,-6.9679,-6.9673,-6.9686,-6.9402,-6.9354,-6.9686,-6.9685,-6.9685,-6.9685,-6.9685,-6.9685,-6.8235,-6.8436,-6.8459,-6.8698,-6.8759,-6.8926,-6.8993,-6.9081,-6.9156,-6.9357,-6.9476,-6.9518,-6.96,-6.9746,-6.9875,-6.989,-6.9944,-6.9999,-7.0008,-6.9741,-6.9706,-6.9672,-6.9627,-7.001,-7.0011,-7.028,-7.0283,-7.0285]}]]